EW8081 Weather Reports


Display with metric or nautical units.
time (UTC)temp
F
wind
direction
speed
MPH
gust
MPH
rain 1hr
in
rain 24hr
in
rain mn
in
humidity
%
barometer
mb
20260509051552 74 189 3.0 9.0 0.00 0.00 0.00 49 1022.0
20260509050050 74 164 4.0 10.0 0.00 0.00 0.00 48 1021.8
20260509044549 74 172 3.0 10.0 0.00 0.00 0.00 47 1021.8
20260509043056 75 147 5.0 9.0 0.00 0.00 0.00 47 1021.8
20260509041548 74 184 4.0 12.0 0.00 0.00 0.00 49 1021.9
20260509040047 74 204 4.0 10.0 0.00 0.00 0.00 47 1021.8
20260509034553 74 194 3.0 10.0 0.00 0.00 0.00 47 1021.7
20260509033051 73 155 5.0 11.0 0.00 0.00 0.00 47 1021.7
20260509031543 75 178 5.0 9.0 0.00 0.00 0.00 46 1022.0
20260509030043 74 193 6.0 15.0 0.00 0.00 0.00 47 1022.2
20260509024542 74 183 4.0 9.0 0.00 0.00 0.00 46 1022.4
20260509023039 75 209 4.0 11.0 0.00 0.00 0.00 46 1022.6
20260509021540 76 196 4.0 10.0 0.00 0.00 0.00 46 1022.7
20260509020036 77 207 4.0 9.0 0.00 0.00 0.00 43 1022.8
20260509014535 77 229 2.0 9.0 0.00 0.00 0.00 40 1023.0
20260509013033 76 201 4.0 8.0 0.00 0.00 0.00 42 1023.1
20260509011530 75 300 5.0 11.0 0.00 0.00 0.00 44 1023.1
20260509010033 74 255 2.0 7.0 0.00 0.00 0.00 44 1023.0
20260509004533 72 286 2.0 9.0 0.00 0.00 0.00 46 1023.2
20260509003022 71 281 6.0 11.0 0.00 0.00 0.00 47 1023.3
20260509001524 71 295 4.0 10.0 0.00 0.00 0.00 47 1023.5
20260509000016 69 233 4.0 12.0 0.00 0.00 0.00 50 1023.4
20260508234513 68 301 5.0 12.0 0.00 0.00 0.00 51 1023.5
20260508233010 67 355 7.0 14.0 0.00 0.00 0.00 52 1023.3
20260508231508 66 324 3.0 11.0 0.00 0.00 0.00 55 1023.3
20260508230004 65 323 6.0 13.0 0.00 0.00 0.00 57 1023.3
20260508224600 64 300 6.0 15.0 0.00 0.00 0.00 58 1023.4
20260508223056 62 274 5.0 13.0 0.00 0.00 0.00 62 1023.2
20260508221552 59 309 7.0 14.0 0.00 0.00 0.00 67 1023.1
20260508220049 57 304 7.0 16.0 0.00 0.00 0.00 71 1023.1
20260508214600 56 304 6.0 13.0 0.00 0.00 0.00 72 1023.0
20260508213043 55 314 6.0 12.0 0.00 0.00 0.00 73 1022.7
20260508211541 55 301 5.0 13.0 0.00 0.00 0.00 73 1022.5
20260508210041 55 303 5.0 11.0 0.00 0.00 0.00 73 1022.4
20260508204537 55 330 7.0 11.0 0.00 0.00 0.00 72 1022.2
20260508203033 56 291 6.0 12.0 0.00 0.00 0.00 71 1022.0
20260508201532 57 300 7.0 12.0 0.00 0.00 0.00 70 1021.7
20260508200039 57 294 6.0 12.0 0.00 0.00 0.00 69 1021.8
20260508194527 57 297 4.0 9.0 0.00 0.00 0.00 69 1021.5
20260508193025 57 307 6.0 11.0 0.00 0.00 0.00 69 1021.3
20260508191524 57 299 7.0 11.0 0.00 0.00 0.00 69 1021.0
20260508190044 57 324 4.0 12.0 0.00 0.00 0.00 69 1021.0
20260508184530 57 282 4.0 11.0 0.00 0.00 0.00 69 1021.0
20260508183031 57 294 5.0 11.0 0.00 0.00 0.00 69 1020.8
20260508181520 56 284 5.0 11.0 0.00 0.00 0.00 69 1020.6
20260508180018 56 301 6.0 13.0 0.00 0.00 0.00 69 1020.4
20260508174516 56 299 6.0 12.0 0.00 0.00 0.00 68 1020.5
20260508173014 57 298 5.0 11.0 0.00 0.00 0.00 68 1020.5
20260508171517 57 315 5.0 12.0 0.00 0.00 0.00 68 1020.4
20260508170013 57 284 6.0 17.0 0.00 0.00 0.00 68 1020.5
20260508164520 56 316 8.0 14.0 0.00 0.00 0.00 68 1020.5
20260508163014 56 326 7.0 13.0 0.00 0.00 0.00 68 1020.6
20260508161510 56 314 6.0 12.0 0.00 0.00 0.00 68 1020.5
20260508160005 56 310 5.0 14.0 0.00 0.00 0.00 68 1020.4
20260508154504 56 299 6.0 14.0 0.00 0.00 0.00 68 1020.4
20260508153002 56 272 5.0 11.0 0.00 0.00 0.00 68 1020.5
20260508151602 56 336 5.0 13.0 0.00 0.00 0.00 67 1020.5
20260508150057 57 284 6.0 11.0 0.00 0.00 0.00 66 1020.5
20260508144655 57 320 5.0 12.0 0.00 0.00 0.00 66 1020.4
20260508143058 57 297 8.0 12.0 0.00 0.00 0.00 66 1020.3
20260508141603 57 302 5.0 11.0 0.00 0.00 0.00 66 1020.5
20260508140048 57 293 6.0 13.0 0.00 0.00 0.00 65 1020.5
20260508134550 58 294 8.0 15.0 0.00 0.00 0.00 64 1020.3
20260508133046 58 311 8.0 14.0 0.00 0.00 0.00 63 1020.1
20260508131557 58 309 8.0 15.0 0.00 0.00 0.00 63 1020.1
20260508130044 58 314 6.0 13.0 0.00 0.00 0.00 64 1020.3
20260508124543 58 319 3.0 10.0 0.00 0.00 0.00 63 1020.3
20260508123043 58 325 5.0 13.0 0.00 0.00 0.00 63 1020.3
20260508121543 58 324 5.0 12.0 0.00 0.00 0.00 63 1020.3
20260508120058 59 283 6.0 12.0 0.00 0.00 0.00 63 1020.3
20260508114553 58 302 5.0 12.0 0.00 0.00 0.00 63 1020.3
20260508113039 59 291 5.0 12.0 0.00 0.00 0.00 62 1020.0
20260508111541 59 319 8.0 13.0 0.00 0.00 0.00 62 1019.9
20260508110036 59 311 8.0 14.0 0.00 0.00 0.00 62 1019.6
20260508104538 59 284 6.0 12.0 0.00 0.00 0.00 62 1019.5
20260508103051 59 305 6.0 14.0 0.00 0.00 0.00 61 1019.3
20260508101532 59 283 6.0 13.0 0.00 0.00 0.00 60 1019.1
20260508100031 59 328 7.0 13.0 0.00 0.00 0.00 59 1018.9
20260508094530 60 290 7.0 16.0 0.00 0.00 0.00 59 1018.8
20260508093037 60 304 7.0 16.0 0.00 0.00 0.00 58 1018.6
20260508091532 60 337 10.0 20.0 0.00 0.00 0.00 57 1018.5
20260508090023 60 284 7.0 16.0 0.00 0.00 0.00 57 1018.3
20260508084521 61 314 6.0 13.0 0.00 0.00 0.00 56 1018.0
20260508083019 61 283 9.0 17.0 0.00 0.00 0.00 55 1017.6
20260508081519 62 341 7.0 13.0 0.00 0.00 0.00 54 1017.3
20260508080018 62 290 7.0 17.0 0.00 0.00 0.00 53 1017.3
20260508074521 62 309 7.0 17.0 0.00 0.00 0.00 51 1017.1
20260508073019 63 280 6.0 14.0 0.00 0.00 0.00 50 1016.9
20260508071517 63 317 7.0 12.0 0.00 0.00 0.00 49 1016.5
20260508070016 64 316 8.0 16.0 0.00 0.00 0.00 47 1016.2
20260508064514 65 283 4.0 13.0 0.00 0.00 0.00 46 1016.1
20260508063016 66 294 8.0 15.0 0.00 0.00 0.00 43 1015.7
20260508061512 71 313 8.0 17.0 0.00 0.00 0.00 37 1015.5
20260508060011 72 289 8.0 19.0 0.00 0.00 0.00 35 1015.3
20260508054509 73 291 6.0 19.0 0.00 0.00 0.00 34 1015.1
20260508053008 74 290 4.0 15.0 0.00 0.00 0.00 34 1014.9